Weather Roundup
Issued by NWS

Home | Current Version | Previous Version | Graphics & Text | Print | Product List | Glossary Off
Versions: 1 2 3 4 5 6 7 8 9 10 11 12 13 14 15 16 17 18 19 20 21 22 23 24 25 26 27 28 29 30 31 32 33 34 35 36 37 38 39 40 41 42 43 44 45 46 47 48 49 50

000
NZUS93 KARX 280010
HRRWXR

CURRENT HOURLY OBSERVATIONS ACROSS
MUCH OF THE UPPER MISSISSIPPI VALLEY
NATIONAL WEATHER SERVICE LA CROSSE WI
700 PM CDT MON MAR 27 2017


...SOUTHEAST MINNESOTA...


CITY           SKY/WX    TMP DP  RH WIND       PRES   REMARKS
ROCHESTER      CLOUDY    44  39  82 NE5       29.96R
ROCHESTER/MAYO CLOUDY    46  40  80 N3        29.96S
WINONA         CLOUDY    45  37  76 N3        29.98R
AUSTIN         CLOUDY    46  39  76 NE5       29.95R
ALBERT LEA     CLEAR     48  37  66 NE9       29.95S
DODGE CENTER   CLOUDY    46  37  71 N6        29.95S
PRESTON        CLOUDY    43  38  82 N7        29.96R
OWATONNA       MOCLDY    48  37  66 NE5       29.96R
FARIBAULT      CLOUDY    52  39  62 NE5       29.96S
$$

...ELSEWHERE IN MINNESOTA...


CITY           SKY/WX    TMP DP  RH WIND       PRES   REMARKS
MINNEAPOLIS    PTCLDY    53  37  54 SE6       29.96R
INTNL FALLS    CLEAR     52  22  30 CALM      29.98R
DULUTH         PTCLDY    44  34  67 SE7       29.98R
RED WING       CLOUDY    50  36  57 CALM      29.96R
REDWOOD FALLS  CLEAR     57  34  41 MISG      29.95R
MANKATO        CLEAR     54  36  50 E6        29.95
WORTHINGTON    CLEAR     50  39  66 E5        29.97R
FAIRMONT       PTCLDY    50  41  71 NE5       29.97R
$$

...SOUTHWEST WISCONSIN...


CITY           SKY/WX    TMP DP  RH WIND       PRES   REMARKS
LA CROSSE      CLOUDY    47  41  80 NW7       29.96R
PRAIRIE DU CHI CLOUDY    46  44  92 NW3       29.95R
BOSCOBEL       CLOUDY    49  46  90 CALM      29.95R
LONE ROCK      CLOUDY    48  44  86 CALM      29.95R
PLATTEVILLE    CLOUDY    48  46  95 N3        29.94R
FORT MC COY    CLOUDY    46  41  83 NW5       29.97R
CAMP DOUGLAS   CLOUDY    45  41  87 N5        29.95R
MAUSTON-NEW LI CLOUDY    46  42  85 CALM      29.95R
VIROQUA        CLOUDY    44  44 100 N5        29.94S
WIS DELLS      CLOUDY    47  42  85 N5        29.94R
$$

...ELSEWHERE IN WISCONSIN...


CITY           SKY/WX    TMP DP  RH WIND       PRES   REMARKS
MILWAUKEE      DRIZZLE   40  36  86 NE7       29.95S
MADISON        CLOUDY    47  43  86 NE6       29.93S
GREEN BAY      CLOUDY    41  37  86 NE5       29.97S
EAU CLAIRE     CLOUDY    46  37  71 E3        29.96S
BLACK RVR FLS  CLOUDY    45  37  73 NE5       29.97R
MEDFORD        CLOUDY    42  38  86 CALM      29.96R
WAUSAU         CLOUDY    43  38  82 N3        29.95R
WIS RAPIDS     CLOUDY    43  40  89 N3        29.97R
MARSHFIELD     CLOUDY    42  37  82 N6        29.95R
RICE LAKE      PTCLDY    50  36  58 CALM      29.97S
$$

...NORTHEAST IOWA...


CITY           SKY/WX    TMP DP  RH WIND       PRES   REMARKS
WATERLOO       CLOUDY    49  40  71 N9        29.94R
DUBUQUE        CLOUDY    48  44  86 N7        29.93R
DECORAH        CLOUDY    46  43  87 CALM      29.94R
MASON CITY     CLOUDY    46  40  79 N8        29.96R
CHARLES CITY   CLOUDY    48  45  87 N6        29.95S
OELWEIN        CLOUDY    48  45  87 N7        29.93S
$$

...ELSEWHERE IN IOWA...


CITY           SKY/WX    TMP DP  RH WIND       PRES   REMARKS
DES MOINES     CLOUDY    51  42  71 N7        29.95R
IOWA CITY      CLOUDY    52  45  77 N7        29.94R
FORT DODGE     CLOUDY    48  39  71 N6        29.97R
MARSHALLTOWN   CLOUDY    48  42  80 N8        29.94R
CEDAR RAPIDS   CLOUDY    50  46  86 N6        29.91S
$$

...NORTHERN ILLINOIS...


CITY           SKY/WX    TMP DP  RH WIND       PRES   REMARKS
CHICAGO-OHARE  CLOUDY    45  39  79 NE8       29.93R
CHICAGO-MIDWAY CLOUDY    44  40  85 NE13      29.93R
MOLINE         CLOUDY    52  45  77 NE8       29.91R
ROCKFORD       CLOUDY    51  44  77 N9        29.94R
PEORIA         CLOUDY    53  50  89 N5        29.89R
$$

NOTE: "FAIR" INDICATES FEW OR NO CLOUDS BELOW 12,000 FEET WITH NO
SIGNIFICANT WEATHER AND/OR OBSTRUCTIONS TO VISIBILITY. WIND
SPEEDS ARE IN MILES-PER-HOUR.




USA.gov is the U.S. government's official web portal to all federal, state and local government web resources and services.